This demonstration page uses our WeatherBlox Daily Observations layout. Learn more.

Left ArrowRight Arrow

39.08367, -84.50855

Hourly Observations for March 23, 2020

Temp ( °F °C ) Dew Point ( °F °C ) Humidity (%) Winds ( mph kmh ) Pressure ( in mb ) Visibility ( mi km ) Precip ( " mm )
12:53 am 00:53 Cloudy 44 6.7 39 3.9 83 83 N N/A 30.17 1022 10 16 0.00 0.00
1:12 am 01:12 Cloudy 44 6.7 38 3.3 79 79 N N/A 30.18 1022 10 16 N/A
1:53 am 01:53 Cloudy 45 7.2 37 2.8 74 74 N N/A 30.15 1021 10 16 N/A
2:53 am 02:53 Cloudy 44 6.7 40 4.4 85 85 N N/A 30.13 1020 10 16 N/A
3:45 am 03:45 Cloudy 45 7.2 40 4.4 83 83 N N/A 30.10 1019 10 16 N/A
3:53 am 03:53 Cloudy 45 7.2 40 4.4 83 83 N N/A 30.08 1019 10 16 N/A
4:50 am 04:50 Cloudy with Mist and Fog 45 7 41 5 87 87 N N/A 30.06 1018 3 5 N/A
4:53 am 04:53 Cloudy with Mist and Fog 43 6.1 41 5 93 93 N N/A 30.06 1018 3 5 N/A
5:27 am 05:27 Cloudy with Mist and Fog 43 6.1 42 5.6 97 97 N N/A 30.07 1018 2 3 N/A
5:53 am 05:53 Cloudy with Light Rain 43 6.1 42 5.6 97 97 N N/A 30.06 1018 2 3 0.01 0.25
6:27 am 06:27 Cloudy with Light Rain 44 6.7 43 6.1 96 96 N N/A 30.07 1018 2 3 0.01 0.25
6:36 am 06:36 Cloudy with Mist and Fog 44 6.7 43 6.1 96 96 N N/A 30.07 1018 2 3 0.01 0.25
6:53 am 06:53 Cloudy with Mist and Fog 44 6.7 43 6.1 96 96 N N/A 30.07 1018 2 3 0.02 0.51
7:53 am 07:53 Cloudy with Mist and Fog 44 6.7 43 6.1 96 96 N N/A 30.10 1019 2 3 0.01 0.25
8:31 am 08:31 Cloudy with Mist and Fog 45 7.2 44 6.7 97 97 W 3 6 30.12 1020 3 5 N/A
8:53 am 08:53 Cloudy with Mist and Fog 45 7.2 43 6.1 93 93 NW 6 9 30.12 1020 5 8 N/A
9:53 am 09:53 Cloudy 45 7.2 41 5 86 86 WNW 5 7 30.14 1021 7 11 N/A
10:53 am 10:53 Cloudy 46 7.8 40 4.4 79 79 WNW 7 11 30.15 1021 10 16 N/A
11:53 am 11:53 Cloudy 47 8.3 40 4.4 77 77 W 9 15 30.15 1021 10 16 N/A
12:53 pm 12:53 Cloudy 48 8.9 40 4.4 74 74 W 8 13 30.16 1021 10 16 N/A
1:53 pm 13:53 Cloudy 50 10 40 4.4 68 68 N 10 17 30.15 1021 10 16 N/A
2:53 pm 14:53 Cloudy 53 11.7 40 4.4 61 61 VRB 3 6 30.13 1020 10 16 N/A
3:53 pm 15:53 Cloudy 53 11.7 40 4.4 61 61 NW 9 15 30.12 1020 10 16 N/A
4:53 pm 16:53 Cloudy 53 11.7 39 3.9 59 59 NNW 8 13 30.12 1020 10 16 N/A
5:53 pm 17:53 Mostly Sunny 54 12.2 38 3.3 55 55 N 6 9 30.13 1020 10 16 N/A
6:53 pm 18:53 Sunny 52 11.1 36 2.2 55 55 N 8 13 30.14 1021 10 16 N/A
7:53 pm 19:53 Clear 49 9.4 36 2.2 61 61 N 7 11 30.15 1021 10 16 N/A
8:53 pm 20:53 Clear 47 8.3 36 2.2 66 66 NNE 5 7 30.17 1022 10 16 N/A
9:53 pm 21:53 Clear 45 7.2 36 2.2 71 71 N 7 11 30.19 1022 10 16 N/A
10:53 pm 22:53 Clear 42 5.6 36 2.2 79 79 N 5 7 30.20 1023 10 16 N/A
11:53 pm 23:53 Clear 41 5 35 1.7 79 79 NNE 5 7 30.20 1023 10 16 N/A

Powered by AerisWeather